#timestamp,LO_Frequency,Hit,StdDev 
1648839615.0,286046998.1,N
1648839616.0,286046998.1,N
1648839635.8,286047002.8,N
1648839655.6,286047000.0,N
1648839675.5,286047000.2,N
1648839695.3,286047002.1,N
1648839715.1,286047001.9,N
1648839735.9,286046999.8,N
1648839755.7,286047002.5,N
1648839775.6,286047000.3,N
1648839795.4,286047001.1,N
1648839815.2,286046998.6,N
1648839835.1,286046998.7,N
1648839836.0,286046998.7,N
1648839855.8,286046998.6,N
1648839875.6,286047000.2,N
1648839895.5,286046999.9,N
1648839915.3,286046999.8,N
1648839935.2,286047000.6,N
1648839955.9,286047000.7,N
1648839975.7,286047001.0,N
1648839995.6,286046999.9,N
1648840015.4,286047002.2,N
1648840035.3,286047001.3,N
1648840055.1,286047001.3,N
1648840056.0,286047001.3,N
1648840075.8,286047001.5,N
1648840095.7,286047002.0,N
1648840115.5,286047003.4,N
1648840135.4,286047003.7,N
1648840155.2,286047004.4,N
1648840175.0,286047002.0,N
1648840175.9,286047002.0,N
1648840195.8,286047002.7,N
1648840215.6,286047002.3,N
1648840235.4,286046999.8,N
1648840255.3,286047001.8,N
1648840275.1,286047002.1,N
1648840295.9,286047002.3,N
1648840315.7,286047002.7,N
1648840335.5,286047001.8,N
1648840355.4,286047003.8,N
1648840375.2,286047001.5,N
1648840395.0,286047002.7,N
1648840396.0,286047011.9,Y
1648840415.8,286047000.4,P
1648840435.6,286047000.4,N
1648840455.5,286047001.0,N
1648840475.3,286047000.6,N
1648840495.1,286046999.9,N
1648840515.9,286047002.2,Y
1648840535.7,286047002.7,P
1648840555.6,286047000.0,N
1648840575.4,286047000.5,N
1648840595.2,286047001.0,N
1648840615.1,286047000.7,N
1648840616.0,286047000.7,N
1648840635.8,286046999.9,N
1648840655.6,286047002.8,Y
1648840675.5,286046998.2,P
1648840695.3,286047000.2,N
1648840715.2,286047000.2,N
1648840735.9,286047000.1,N
1648840755.7,286047001.1,N
1648840775.6,286046998.3,N
1648840795.4,286046999.3,N
1648840815.3,286046998.6,N
1648840835.1,286046999.0,N
1648840836.0,286046999.0,N
1648840855.8,286046999.0,N
1648840875.7,286047001.0,N
1648840895.5,286046998.2,N
1648840915.3,286046996.5,Y
1648840935.2,286047000.7,P
1648840955.0,286046999.0,N
1648840955.9,286046999.0,N
1648840975.8,286046998.3,N
1648840995.6,286046998.2,N
1648841015.4,286047001.1,N
1648841035.3,286046998.6,N
1648841055.1,286046998.9,N
1648841075.9,286046998.4,N
1648841095.7,286046996.5,Y
1648841115.5,286046998.6,P
1648841135.4,286047000.3,N
1648841155.2,286047000.4,N
1648841175.0,286046998.5,N
1648841175.9,286046998.5,N
1648841195.8,286046999.9,N
1648841215.6,286047000.6,N
1648841235.5,286046998.1,N
1648841255.3,286046999.3,N
1648841275.1,286046998.9,N
1648841295.9,286046999.2,N
1648841315.7,286046999.3,N
1648841335.6,286047001.2,N
1648841355.4,286047001.0,N
1648841375.2,286046999.9,N
1648841395.1,286046999.9,N
1648841396.0,286046999.9,N
1648841415.8,286047001.2,N
1648841435.6,286046998.2,N
1648841455.5,286047000.1,N
1648841475.3,286046999.8,N
1648841495.2,286047000.1,N
1648841515.9,286047000.9,N
1648841535.7,286047000.9,N
1648841555.6,286046998.7,N
1648841575.4,286046998.5,N
1648841595.2,286047001.2,N
1648841615.1,286046998.5,N
1648841616.0,286046998.5,N
1648841635.8,286046998.4,N
1648841655.7,286046998.8,N
1648841675.5,286046998.2,N
1648841695.4,286047001.1,N
1648841715.2,286047000.7,N
1648841735.0,286047000.9,N
1648841735.9,286047000.9,N
1648841755.8,286047000.0,N
1648841775.6,286047000.1,N
1648841795.4,286047000.3,N
1648841815.3,286047002.4,N
1648841835.1,286047002.2,N
1648841855.9,286047000.3,N
1648841875.7,286047000.8,N
1648841895.5,286046999.6,N
1648841915.4,286046999.6,N
1648841935.2,286046998.1,N
1648841955.1,286047000.7,N
1648841956.0,286047000.7,N
1648841975.8,286046998.1,N
1648841995.6,286047001.0,N
1648842015.5,286047002.2,N
1648842035.3,286047003.5,N
1648842055.1,286047004.4,Y
1648842075.9,286046999.7,P
1648842095.7,286047002.8,P
1648842115.6,286047002.8,N
1648842135.4,286047002.2,N
1648842155.2,286047000.9,N
1648842175.1,286047001.1,N
1648842176.0,286047001.1,N
1648842195.8,286047000.7,N
1648842215.6,286047001.2,N
1648842235.5,286047000.8,N
1648842255.3,286046998.6,N
1648842275.2,286046998.7,N
1648842295.9,286046998.4,N
1648842315.7,286046997.0,N
1648842335.6,286046997.0,N
1648842355.4,286046999.5,N
1648842375.2,286046996.8,N
1648842395.1,286046997.1,N
1648842396.0,286046997.1,N
1648842415.8,286046995.0,N
1648842435.7,286046995.0,N
1648842455.5,286046997.9,N
1648842475.3,286046997.4,N
1648842495.2,286046995.4,N
1648842515.0,286046996.2,N
1648842515.9,286046996.2,N
1648842535.7,286046996.1,N
1648842555.6,286046995.7,N
1648842575.4,286046994.9,N
1648842595.3,286046994.2,N
1648842615.1,286046993.7,N
1648842635.8,286046996.0,N
1648842655.7,286046995.0,N
1648842675.5,286046995.5,N
1648842695.4,286046995.3,N
1648842715.2,286046994.9,N
1648842735.0,286046996.1,N
1648842735.9,286046996.1,N
1648842755.8,286046996.2,N
1648842775.6,286046993.9,Y
1648842795.4,286046997.0,P
1648842815.3,286046997.6,P
1648842835.1,286046997.9,P
1648842855.9,286046996.7,Y
1648842875.7,286046999.9,P
1648842895.5,286047002.7,N
1648842915.4,286047000.5,N
1648842935.2,286046999.4,N
1648842955.1,286046999.5,N
1648842956.0,286046999.5,N
1648842975.8,286046998.5,N
1648842995.6,286046998.1,N
1648843015.5,286047000.9,N
1648843035.3,286046999.3,N
1648843055.2,286046998.9,N
1648843075.9,286046999.0,N
1648843095.7,286046996.7,N
1648843115.6,286046997.3,N
1648843135.4,286046999.2,N
1648843155.2,286046998.6,N
1648843175.1,286046998.9,N
1648843176.0,286046998.9,N
1648843195.8,286046999.0,N
